Back to catalog

STARLINK-33857

AliveCommunicationsVLEO
NORAD 64195·PAYLOAD·🇺🇸 United States

Launched May 28, 2025 from Cape Canaveral Space Force Station

Loading…

Next Passes (next 24 hours)

TLE

FreshSource: CelesTrak SupGP

Epoch: Sep 14, 2026, 20:48 UTC

1 64195C 25113AB  26257.86715278  .00011088  00000+0  35667-3 0  2577
2 64195  53.1576 291.4947 0001262  85.3408 218.6941 15.31688085    16

Track STARLINK-33857 in real time with AllMySat

Download on the App Store